Terminal Aerodrome Forecast
Issued by NWS Milwaukee/Sullivan, WI

Home | Current Version | Previous Version | Text Only | Print | Product List | Glossary On
Versions: 1 2 3 4 5 6 7 8 9 10 11 12 13 14 15 16 17 18 19 20 21 22 23 24 25 26 27 28 29 30 31 32 33 34 35 36 37 38 39 40
000
FTUS43 KMKX 260520
TAFMKE
TAF
KMKE 260520Z 2606/2712 30007KT P6SM SKC
     FM261800 24004KT P6SM FEW250
     FM262000 15007KT P6SM FEW250
     FM270500 14007KT P6SM BKN050
     FM270900 14010KT P6SM VCSH BKN020=

USA.gov is the U.S. government's official web portal to all federal, state and local government web resources and services.